This is the latest recevied weather packets stored in our database for station/object KB1FFS. If no packets are shown the sender has not sent any weather packets the latest 10 day(s).
| Time | Temp. | Humidity | Pressure | Rain* | Wind** | Luminosity | Snow |
|---|---|---|---|---|---|---|---|
| 1777744002 | 25° C | 36% | 1023 hPa | 0 mm | - | 906 W/m² | - |
| 1777743698 | 25.56° C | 31% | 1023.3 hPa | 0 mm | - | 904 W/m² | - |
| 1777743396 | 25.56° C | 32% | 1023.3 hPa | 0 mm | - | 898 W/m² | - |
| 1777743094 | 25° C | 39% | 1023.4 hPa | 0 mm | - | 891 W/m² | - |
| 1777742791 | 24.44° C | 34% | 1023.6 hPa | 0 mm | - | 885 W/m² | - |
| 1777742487 | 25° C | 31% | 1023.5 hPa | 0 mm | - | 878 W/m² | - |
| 1777742182 | 25° C | 33% | 1023.9 hPa | 0 mm | - | 876 W/m² | - |
| 1777741880 | 25° C | 29% | 1023.7 hPa | 0 mm | - | 869 W/m² | - |
| 1777741577 | 25° C | 33% | 1023.7 hPa | 0 mm | - | 860 W/m² | - |
| 1777741274 | 25° C | 35% | 1023.7 hPa | 0 mm | - | 849 W/m² | - |
| 1777740970 | 25° C | 38% | 1023.8 hPa | 0 mm | - | 843 W/m² | - |
| 1777740668 | 24.44° C | 40% | 1023.7 hPa | 0 mm | - | 831 W/m² | - |
| 1777740364 | 23.89° C | 42% | 1023.9 hPa | 0 mm | - | 823 W/m² | - |
| 1777740061 | 23.89° C | 38% | 1023.9 hPa | 0 mm | - | 813 W/m² | - |
| 1777739756 | 23.89° C | 41% | 1023.8 hPa | 0 mm | - | 801 W/m² | - |
| 1777739453 | 23.89° C | 43% | 1023.8 hPa | 0 mm | - | 793 W/m² | - |
| 1777739150 | 23.89° C | 40% | 1023.6 hPa | 0 mm | - | 781 W/m² | - |
| 1777738847 | 23.89° C | 43% | 1023.7 hPa | 0 mm | - | 769 W/m² | - |
| 1777738544 | 23.33° C | 41% | 1023.6 hPa | 0 mm | - | 758 W/m² | - |
| 1777738242 | 23.33° C | 41% | 1023.7 hPa | 0 mm | - | 742 W/m² | - |
| 1777737940 | 23.33° C | 41% | 1023.7 hPa | 0 mm | - | 726 W/m² | - |
| 1777737638 | 22.78° C | 40% | 1023.6 hPa | 0 mm | - | 702 W/m² | - |
| 1777737336 | 22.78° C | 42% | 1023.8 hPa | 0 mm | - | 662 W/m² | - |
| 1777737033 | 22.78° C | 44% | 1023.6 hPa | 0 mm | - | 291 W/m² | - |
| 1777736729 | 22.78° C | 41% | 1023.6 hPa | 0 mm | - | 74 W/m² | - |
* Rain latest hour (hover to see other rain measurements)
** Current wind speed in m/s (hover to see current wind gust speed)